STARLINK-34340, 64163

Orbit data source: Space-Track

STARLINK-34340, 64163 is a payload satellite owned by SpaceX/Seattle (US) in SSO that was launched on Tue, 27 May 2025 UTC via an FALCON 9 launch vehicle from the Air Force Western Test Range (AFWTR). Payload-class satellites include a variety of spacecraft equipped with specific instruments for various scientific and technological missions. These include communications satellites like Starlink; space stations such as the ISS; scientific satellites like the Hubble; Earth observation satellites from companies like Planet Labs, Umbra, and HawkEye 360; GPS; miniature CubeSats for education and research; and military/defense satellites.

Loading next visibility...
Identifier
64163, 2025-112T
Orbit
SSO
Country
Flag of USUS
Related business
Manufacturer
SpaceX/Seattle
Mission
Operational Commercial Communications
Bus & Motor
STARLINK V2MO, Unknown motor
Mass
575 kg wet, ~530 kg dry
Launch date (UTC)
2025-05-27 (1 year ago)
Launch vehicle
FALCON 9
Launch site
Air Force Western Test Range (AFWTR)
Object type
Payload
Rocket body
Debris
Shape & HBR
Box + 1 Pan, 17.7 m
Radar Cross Section
41.120 m², Large (>1 m²)

Expand to show TLE details & history
Last TLE update: 1 day ago

TLE from 1 day ago
0 STARLINK-34340
1 64163U 25112T   26237.08521860  .00038347  00000-0  11821-2 0  9991
2 64163  97.2840 284.5913 0001237  86.2720 273.8664 15.33499123 68709
Epoch: 2026-08-25T02:02Z
TLE epoch observation values (Epoch: 2026-08-25T02:02:42.887Z)
Latitude
-0.00002°
Longitude
-79.44503°
Altitude
468.437 km
Speed
7.632 km/s
True Right ascension
18h 58m 21s
True Declination
0° 00' 00"
Sunlit
Object was in full shadow at epoch
Visualization orbit readout
Latitude
Unknown
Longitude
Unknown
Altitude
Unknown
Speed
Unknown
Apparent Right ascension
Unknown
Apparent Declination
Unknown
Sunlit
N/A
Visualization observer readout
Local Sidereal Time
23:19:08
Azimuth
Unknown
Elevation
Unknown
Doppler factor
Unknown
Orbital elements
Apogee altitude
463.171 km
Perigee altitude
461.479 km
Semi-major axis
6,840.462 km
Eccentricity
0.00012
Inclination
97.284°
RAAN
284.5913°
Arg. of periapsis
86.272°
True anomaly
273.85226°
Mean anomaly
273.8664°
Eccentric anomaly
273.85933°
Mean motion
3.83632 °/min
Orbital period
93.84 mins
BSTAR
0.0011821
Loading maneuver chart data...
Computing Atmospheric mass density...
Loading historical data...
Loading historical data...
Loading historical data...
Loading historical data...
Loading historical data...
Loading historical data...
Loading historical data...

Documentation

Showing up to 5 results
|